Time,TemperatureF,DewpointF,PressureIn,WindDirection,WindDirectionDegrees,WindSpeedMPH,WindSpeedGustMPH,Humidity,HourlyPrecipIn,Conditions,Clouds,dailyrainin,SolarRadiationWatts/m^2,SoftwareType,DateUTC
2013-02-07 00:10:00,14.4,12.0,30.39,SSW,201,0.0,0.0,90,0.00,,,0.00,0,Wunderground v.1.15,2013-02-07 05:10:00,
2013-02-07 00:19:00,14.3,11.9,30.39,SSW,201,0.0,0.0,90,0.00,,,0.00,0,Wunderground v.1.15,2013-02-07 05:19:00,
2013-02-07 00:29:00,13.9,11.5,30.39,SSW,201,0.0,0.0,90,0.00,,,0.00,0,Wunderground v.1.15,2013-02-07 05:29:00,
2013-02-07 00:40:00,14.7,12.0,30.39,SSW,201,0.0,0.0,89,0.00,,,0.00,0,Wunderground v.1.15,2013-02-07 05:40:00,
2013-02-07 00:50:00,13.8,11.2,30.39,SSW,200,0.0,0.0,89,0.00,,,0.00,0,Wunderground v.1.15,2013-02-07 05:50:00,
2013-02-07 01:00:00,13.6,11.2,30.39,SSW,200,0.0,0.0,90,0.00,,,0.00,0,Wunderground v.1.15,2013-02-07 06:00:00,
2013-02-07 01:10:00,13.8,11.4,30.39,SSW,200,0.0,0.0,90,0.00,,,0.00,0,Wunderground v.1.15,2013-02-07 06:10:00,
2013-02-07 01:20:00,14.8,12.4,30.39,SSW,197,0.0,0.0,90,0.00,,,0.00,0,Wunderground v.1.15,2013-02-07 06:20:00,
2013-02-07 01:30:00,14.1,11.2,30.40,SSW,197,0.0,0.0,88,0.00,,,0.00,0,Wunderground v.1.15,2013-02-07 06:30:00,
2013-02-07 01:40:00,13.7,11.1,30.41,SSW,197,0.0,0.0,89,0.00,,,0.00,0,Wunderground v.1.15,2013-02-07 06:40:00,
2013-02-07 01:50:00,14.1,11.7,30.41,SSW,197,0.0,0.0,90,0.00,,,0.00,0,Wunderground v.1.15,2013-02-07 06:50:00,
2013-02-07 02:00:00,14.9,12.7,30.41,SSW,197,0.0,0.0,91,0.00,,,0.00,0,Wunderground v.1.15,2013-02-07 07:00:00,
2013-02-07 02:10:00,16.1,13.9,30.42,SSW,197,0.0,0.0,91,0.00,,,0.00,0,Wunderground v.1.15,2013-02-07 07:10:00,
2013-02-07 02:20:00,16.3,13.6,30.42,SSE,168,0.0,0.0,89,0.00,,,0.00,0,Wunderground v.1.15,2013-02-07 07:20:00,
2013-02-07 02:30:00,16.2,13.5,30.42,SSE,168,0.0,0.0,89,0.00,,,0.00,0,Wunderground v.1.15,2013-02-07 07:30:00,
2013-02-07 02:40:00,16.9,14.0,30.42,SSE,168,0.0,0.0,88,0.00,,,0.00,0,Wunderground v.1.15,2013-02-07 07:40:00,
2013-02-07 02:50:00,17.3,13.8,30.42,SSE,168,1.0,1.0,86,0.00,,,0.00,0,Wunderground v.1.15,2013-02-07 07:50:00,
2013-02-07 03:00:00,17.1,13.9,30.42,SSE,168,0.0,0.0,87,0.00,,,0.00,0,Wunderground v.1.15,2013-02-07 08:00:00,
2013-02-07 03:10:00,17.2,14.3,30.41,SSE,168,0.0,0.0,88,0.00,,,0.00,0,Wunderground v.1.15,2013-02-07 08:10:00,
2013-02-07 03:19:00,17.5,14.3,30.41,SSE,168,0.0,0.0,87,0.00,,,0.00,0,Wunderground v.1.15,2013-02-07 08:19:00,
2013-02-07 03:29:00,17.8,14.6,30.41,SSE,168,0.0,0.0,87,0.00,,,0.00,0,Wunderground v.1.15,2013-02-07 08:29:00,
2013-02-07 03:39:00,18.0,14.8,30.41,SSE,168,0.0,0.0,87,0.00,,,0.00,0,Wunderground v.1.15,2013-02-07 08:39:00,
2013-02-07 03:49:00,18.2,15.0,30.41,SSE,168,0.0,0.0,87,0.00,,,0.00,0,Wunderground v.1.15,2013-02-07 08:49:00,
2013-02-07 03:59:00,18.9,15.1,30.41,SSE,168,0.0,0.0,85,0.00,,,0.00,0,Wunderground v.1.15,2013-02-07 08:59:00,
2013-02-07 04:09:00,19.1,15.3,30.41,SSE,168,0.0,0.0,85,0.00,,,0.00,0,Wunderground v.1.15,2013-02-07 09:09:00,
2013-02-07 04:19:00,19.3,15.0,30.42,SSE,163,1.0,1.0,83,0.00,,,0.00,0,Wunderground v.1.15,2013-02-07 09:19:00,
2013-02-07 04:29:00,19.1,14.2,30.42,SSE,153,2.0,2.0,81,0.00,,,0.00,0,Wunderground v.1.15,2013-02-07 09:29:00,
2013-02-07 04:39:00,19.0,13.8,30.42,SSE,156,2.0,2.0,80,0.00,,,0.00,0,Wunderground v.1.15,2013-02-07 09:39:00,
2013-02-07 04:49:00,18.9,13.7,30.42,SSE,157,2.0,2.0,80,0.00,,,0.00,0,Wunderground v.1.15,2013-02-07 09:49:00,
2013-02-07 05:00:00,19.1,14.2,30.43,South,174,1.0,3.0,81,0.00,,,0.00,0,Wunderground v.1.15,2013-02-07 10:00:00,
2013-02-07 05:10:00,19.2,14.0,30.43,SSE,161,3.0,3.0,80,0.00,,,0.00,0,Wunderground v.1.15,2013-02-07 10:10:00,
2013-02-07 05:20:00,19.1,13.9,30.43,SE,146,2.0,2.0,80,0.00,,,0.00,0,Wunderground v.1.15,2013-02-07 10:20:00,
2013-02-07 05:30:00,19.3,14.1,30.44,SE,144,2.0,3.0,80,0.00,,,0.00,0,Wunderground v.1.15,2013-02-07 10:30:00,
2013-02-07 05:40:00,19.4,13.9,30.43,SSE,148,3.0,3.0,79,0.00,,,0.00,0,Wunderground v.1.15,2013-02-07 10:40:00,
2013-02-07 05:50:00,19.5,14.0,30.43,SE,136,2.0,4.0,79,0.00,,,0.00,0,Wunderground v.1.15,2013-02-07 10:50:00,
2013-02-07 06:00:00,19.6,13.9,30.43,SE,134,3.0,4.0,78,0.00,,,0.00,0,Wunderground v.1.15,2013-02-07 11:00:00,
2013-02-07 06:10:00,19.7,13.7,30.42,SSE,150,4.0,4.0,77,0.00,,,0.00,0,Wunderground v.1.15,2013-02-07 11:10:00,
2013-02-07 06:20:00,19.9,13.6,30.43,SE,128,4.0,5.0,76,0.00,,,0.00,0,Wunderground v.1.15,2013-02-07 11:20:00,
2013-02-07 06:29:00,19.7,13.4,30.43,SE,144,3.0,3.0,76,0.00,,,0.00,0,Wunderground v.1.15,2013-02-07 11:29:00,
2013-02-07 06:39:00,19.4,12.8,30.43,SE,126,3.0,3.0,75,0.00,,,0.00,0,Wunderground v.1.15,2013-02-07 11:39:00,
2013-02-07 06:49:00,19.1,12.5,30.42,ESE,123,3.0,4.0,75,0.00,,,0.00,0,Wunderground v.1.15,2013-02-07 11:49:00,
2013-02-07 06:59:00,18.8,12.2,30.43,SE,128,3.0,4.0,75,0.00,,,0.00,0,Wunderground v.1.15,2013-02-07 11:59:00,
2013-02-07 07:09:00,18.7,12.1,30.43,ESE,102,3.0,3.0,75,0.00,,,0.00,0,Wunderground v.1.15,2013-02-07 12:09:00,
2013-02-07 07:19:00,18.5,12.2,30.43,East,82,2.0,3.0,76,0.00,,,0.00,5,Wunderground v.1.15,2013-02-07 12:19:00,
2013-02-07 07:29:00,18.2,12.2,30.43,ESE,106,3.0,3.0,77,0.00,,,0.00,9,Wunderground v.1.15,2013-02-07 12:29:00,
2013-02-07 07:39:00,18.0,12.3,30.44,ESE,115,3.0,3.0,78,0.00,,,0.00,12,Wunderground v.1.15,2013-02-07 12:39:00,
2013-02-07 07:49:00,18.0,12.6,30.45,ESE,109,3.0,3.0,79,0.00,,,0.00,21,Wunderground v.1.15,2013-02-07 12:49:00,
2013-02-07 07:59:00,18.3,12.9,30.45,ESE,121,3.0,3.0,79,0.00,,,0.00,39,Wunderground v.1.15,2013-02-07 12:59:00,
2013-02-07 08:10:00,18.8,13.4,30.46,ESE,118,4.0,4.0,79,0.00,,,0.00,76,Wunderground v.1.15,2013-02-07 13:10:00,
2013-02-07 08:19:00,19.3,13.6,30.46,SE,132,4.0,5.0,78,0.00,,,0.00,90,Wunderground v.1.15,2013-02-07 13:19:00,
2013-02-07 08:40:00,20.4,14.9,30.47,ESE,116,3.0,3.0,79,0.00,,,0.00,98,Wunderground v.1.15,2013-02-07 13:40:00,
2013-02-07 08:50:00,20.6,14.8,30.46,ESE,115,5.0,5.0,78,0.00,,,0.00,132,Wunderground v.1.15,2013-02-07 13:50:00,
2013-02-07 09:00:00,21.1,15.3,30.46,SE,124,5.0,8.0,78,0.00,,,0.00,128,Wunderground v.1.15,2013-02-07 14:00:00,
2013-02-07 09:10:00,21.5,15.4,30.46,East,93,5.0,5.0,77,0.00,,,0.00,158,Wunderground v.1.15,2013-02-07 14:10:00,
2013-02-07 09:20:00,22.2,15.8,30.46,SE,134,6.0,6.0,76,0.00,,,0.00,158,Wunderground v.1.15,2013-02-07 14:20:00,
2013-02-07 09:30:00,22.2,15.2,30.47,SE,138,6.0,10.0,74,0.00,,,0.00,156,Wunderground v.1.15,2013-02-07 14:30:00,
2013-02-07 09:40:00,22.6,15.6,30.46,ESE,117,7.0,9.0,74,0.00,,,0.00,202,Wunderground v.1.15,2013-02-07 14:40:00,
2013-02-07 09:50:00,23.1,15.7,30.46,SE,129,9.0,9.0,73,0.00,,,0.00,178,Wunderground v.1.15,2013-02-07 14:50:00,
2013-02-07 10:00:00,23.4,16.0,30.45,SE,130,10.0,13.0,73,0.00,,,0.00,192,Wunderground v.1.15,2013-02-07 15:00:00,
2013-02-07 10:10:00,23.4,15.4,30.45,ESE,115,9.0,14.0,71,0.00,,,0.00,183,Wunderground v.1.15,2013-02-07 15:10:00,
2013-02-07 10:19:00,23.7,16.0,30.45,East,96,9.0,10.0,72,0.00,,,0.00,218,Wunderground v.1.15,2013-02-07 15:19:00,
2013-02-07 10:29:00,24.0,16.0,30.45,ESE,121,9.0,12.0,71,0.00,,,0.00,236,Wunderground v.1.15,2013-02-07 15:29:00,
2013-02-07 10:39:00,24.5,16.8,30.44,SE,144,10.0,10.0,72,0.00,,,0.00,315,Wunderground v.1.15,2013-02-07 15:39:00,
2013-02-07 10:49:00,25.1,17.0,30.43,East,91,8.0,11.0,71,0.00,,,0.00,330,Wunderground v.1.15,2013-02-07 15:49:00,
2013-02-07 10:59:00,25.4,17.3,30.43,SE,126,9.0,16.0,71,0.00,,,0.00,345,Wunderground v.1.15,2013-02-07 15:59:00,
2013-02-07 11:09:00,25.7,16.9,30.43,ESE,113,11.0,11.0,69,0.00,,,0.00,403,Wunderground v.1.15,2013-02-07 16:09:00,
2013-02-07 11:19:00,26.6,17.1,30.42,ESE,111,10.0,13.0,67,0.00,,,0.00,432,Wunderground v.1.15,2013-02-07 16:19:00,
2013-02-07 11:29:00,27.1,17.9,30.42,ESE,113,10.0,11.0,68,0.00,,,0.00,501,Wunderground v.1.15,2013-02-07 16:29:00,
2013-02-07 11:39:00,27.2,17.0,30.41,SE,142,9.0,11.0,65,0.00,,,0.00,490,Wunderground v.1.15,2013-02-07 16:39:00,
2013-02-07 11:50:00,27.4,17.5,30.41,SE,129,11.0,11.0,66,0.00,,,0.00,483,Wunderground v.1.15,2013-02-07 16:50:00,
2013-02-07 12:00:00,27.5,17.3,30.40,SE,134,11.0,11.0,65,0.00,,,0.00,548,Wunderground v.1.15,2013-02-07 17:00:00,
2013-02-07 12:10:00,28.1,17.5,30.39,ESE,121,10.0,10.0,64,0.00,,,0.00,584,Wunderground v.1.15,2013-02-07 17:10:00,
2013-02-07 12:20:00,28.3,17.3,30.38,ESE,105,10.0,10.0,63,0.00,,,0.00,483,Wunderground v.1.15,2013-02-07 17:20:00,
2013-02-07 12:30:00,28.4,17.8,30.38,SE,143,9.0,9.0,64,0.00,,,0.00,468,Wunderground v.1.15,2013-02-07 17:30:00,
2013-02-07 12:40:00,28.4,17.4,30.37,SE,142,9.0,9.0,63,0.00,,,0.00,471,Wunderground v.1.15,2013-02-07 17:40:00,
2013-02-07 12:50:00,28.3,16.9,30.37,East,92,9.0,9.0,62,0.00,,,0.00,434,Wunderground v.1.15,2013-02-07 17:50:00,
2013-02-07 13:00:00,28.9,17.5,30.36,ESE,111,8.0,11.0,62,0.00,,,0.00,341,Wunderground v.1.15,2013-02-07 18:00:00,
2013-02-07 13:10:00,28.7,17.7,30.36,SSE,159,10.0,12.0,63,0.00,,,0.00,385,Wunderground v.1.15,2013-02-07 18:10:00,
2013-02-07 13:20:00,28.9,17.9,30.35,SE,131,11.0,11.0,63,0.00,,,0.00,336,Wunderground v.1.15,2013-02-07 18:20:00,
2013-02-07 13:30:00,29.0,18.0,30.35,SSE,150,10.0,12.0,63,0.00,,,0.00,387,Wunderground v.1.15,2013-02-07 18:30:00,
2013-02-07 13:40:00,29.4,18.7,30.34,SE,142,11.0,11.0,64,0.00,,,0.00,399,Wunderground v.1.15,2013-02-07 18:40:00,
2013-02-07 13:50:00,29.5,18.4,30.34,ESE,114,9.0,9.0,63,0.00,,,0.00,320,Wunderground v.1.15,2013-02-07 18:50:00,
2013-02-07 13:59:00,29.3,17.9,30.33,SE,139,10.0,10.0,62,0.00,,,0.00,267,Wunderground v.1.15,2013-02-07 18:59:00,
2013-02-07 14:09:00,29.2,17.8,30.33,SE,134,10.0,14.0,62,0.00,,,0.00,279,Wunderground v.1.15,2013-02-07 19:09:00,
2013-02-07 14:19:00,29.3,17.9,30.32,SE,130,10.0,10.0,62,0.00,,,0.00,258,Wunderground v.1.15,2013-02-07 19:19:00,
2013-02-07 14:29:00,29.7,18.3,30.32,SE,144,9.0,9.0,62,0.00,,,0.00,294,Wunderground v.1.15,2013-02-07 19:29:00,
2013-02-07 14:39:00,29.8,18.0,30.31,SSE,150,10.0,12.0,61,0.00,,,0.00,288,Wunderground v.1.15,2013-02-07 19:39:00,
2013-02-07 14:49:00,30.4,18.5,30.31,ESE,107,10.0,10.0,61,0.00,,,0.00,334,Wunderground v.1.15,2013-02-07 19:49:00,
2013-02-07 14:59:00,30.7,18.4,30.31,ESE,104,7.0,11.0,60,0.00,,,0.00,255,Wunderground v.1.15,2013-02-07 19:59:00,
2013-02-07 15:09:00,30.2,17.6,30.31,ESE,107,9.0,9.0,59,0.00,,,0.00,149,Wunderground v.1.15,2013-02-07 20:09:00,
2013-02-07 15:19:00,30.0,17.8,30.30,East,98,8.0,9.0,60,0.00,,,0.00,125,Wunderground v.1.15,2013-02-07 20:19:00,
2013-02-07 15:29:00,30.2,18.0,30.30,ESE,111,9.0,10.0,60,0.00,,,0.00,146,Wunderground v.1.15,2013-02-07 20:29:00,
2013-02-07 15:40:00,30.5,17.9,30.29,ESE,123,7.0,9.0,59,0.00,,,0.00,149,Wunderground v.1.15,2013-02-07 20:40:00,
2013-02-07 15:50:00,30.5,17.9,30.29,ESE,123,8.0,8.0,59,0.00,,,0.00,146,Wunderground v.1.15,2013-02-07 20:50:00,
2013-02-07 16:00:00,30.7,18.4,30.29,ESE,105,8.0,8.0,60,0.00,,,0.00,121,Wunderground v.1.15,2013-02-07 21:00:00,
2013-02-07 16:10:00,30.7,18.1,30.29,ESE,113,8.0,8.0,59,0.00,,,0.00,95,Wunderground v.1.15,2013-02-07 21:10:00,
2013-02-07 16:20:00,30.7,18.1,30.28,ESE,113,8.0,8.0,59,0.00,,,0.00,76,Wunderground v.1.15,2013-02-07 21:20:00,
2013-02-07 16:30:00,30.7,18.4,30.28,East,81,7.0,7.0,60,0.00,,,0.00,56,Wunderground v.1.15,2013-02-07 21:30:00,
2013-02-07 16:40:00,30.4,18.5,30.28,East,79,7.0,8.0,61,0.00,,,0.00,44,Wunderground v.1.15,2013-02-07 21:40:00,
2013-02-07 16:50:00,30.3,18.5,30.28,East,90,7.0,7.0,61,0.00,,,0.00,39,Wunderground v.1.15,2013-02-07 21:50:00,
2013-02-07 17:00:00,30.0,18.5,30.27,East,91,6.0,6.0,62,0.00,,,0.00,21,Wunderground v.1.15,2013-02-07 22:00:00,
2013-02-07 17:10:00,29.7,18.3,30.28,ENE,60,7.0,9.0,62,0.00,,,0.00,12,Wunderground v.1.15,2013-02-07 22:10:00,
2013-02-07 17:20:00,29.4,18.0,30.27,ENE,69,7.0,12.0,62,0.00,,,0.00,5,Wunderground v.1.15,2013-02-07 22:20:00,
2013-02-07 17:30:00,28.8,17.0,30.27,ESE,105,9.0,9.0,61,0.00,,,0.00,0,Wunderground v.1.15,2013-02-07 22:30:00,
2013-02-07 17:40:00,28.5,17.5,30.27,East,84,9.0,9.0,63,0.00,,,0.00,0,Wunderground v.1.15,2013-02-07 22:40:00,
2013-02-07 17:50:00,28.4,17.4,30.26,ENE,71,8.0,8.0,63,0.00,,,0.00,0,Wunderground v.1.15,2013-02-07 22:50:00,
2013-02-07 18:00:00,28.2,17.2,30.27,East,83,8.0,8.0,63,0.00,,,0.00,0,Wunderground v.1.15,2013-02-07 23:00:00,
2013-02-07 18:10:00,28.1,17.5,30.27,ENE,70,8.0,8.0,64,0.00,,,0.00,0,Wunderground v.1.15,2013-02-07 23:10:00,
2013-02-07 18:19:00,27.9,17.3,30.27,East,93,8.0,8.0,64,0.00,,,0.00,0,Wunderground v.1.15,2013-02-07 23:19:00,
2013-02-07 18:30:00,27.8,17.2,30.27,East,95,6.0,8.0,64,0.00,,,0.00,0,Wunderground v.1.15,2013-02-07 23:30:00,
2013-02-07 18:40:00,27.8,16.8,30.26,East,88,8.0,10.0,63,0.00,,,0.00,0,Wunderground v.1.15,2013-02-07 23:40:00,
2013-02-07 18:49:00,27.8,16.8,30.26,East,93,8.0,8.0,63,0.00,,,0.00,0,Wunderground v.1.15,2013-02-07 23:49:00,
2013-02-07 18:59:00,27.7,16.7,30.26,ESE,103,7.0,7.0,63,0.00,,,0.00,0,Wunderground v.1.15,2013-02-07 23:59:00,
2013-02-07 19:09:00,27.6,17.0,30.26,East,80,6.0,6.0,64,0.00,,,0.00,0,Wunderground v.1.15,2013-02-08 00:09:00,
2013-02-07 19:19:00,27.6,17.0,30.25,East,94,6.0,8.0,64,0.00,,,0.00,0,Wunderground v.1.15,2013-02-08 00:19:00,
2013-02-07 19:29:00,27.5,16.5,30.25,ENE,78,6.0,6.0,63,0.00,,,0.00,0,Wunderground v.1.15,2013-02-08 00:29:00,
2013-02-07 19:39:00,27.5,16.5,30.25,East,82,6.0,6.0,63,0.00,,,0.00,0,Wunderground v.1.15,2013-02-08 00:39:00,
2013-02-07 19:49:00,27.5,17.3,30.25,East,96,5.0,9.0,65,0.00,,,0.00,0,Wunderground v.1.15,2013-02-08 00:49:00,
2013-02-07 19:59:00,27.5,16.9,30.24,East,89,5.0,6.0,64,0.00,,,0.00,0,Wunderground v.1.15,2013-02-08 00:59:00,
2013-02-07 20:09:00,27.5,16.9,30.24,East,87,7.0,8.0,64,0.00,,,0.00,0,Wunderground v.1.15,2013-02-08 01:09:00,
2013-02-07 20:19:00,27.4,17.2,30.23,ESE,111,6.0,6.0,65,0.00,,,0.00,0,Wunderground v.1.15,2013-02-08 01:19:00,
2013-02-07 20:30:00,27.5,17.3,30.23,ESE,103,6.0,8.0,65,0.00,,,0.00,0,Wunderground v.1.15,2013-02-08 01:30:00,
2013-02-07 20:40:00,27.6,17.4,30.23,ESE,111,6.0,8.0,65,0.00,,,0.00,0,Wunderground v.1.15,2013-02-08 01:40:00,
2013-02-07 20:50:00,27.7,17.8,30.23,ESE,106,4.0,4.0,66,0.00,,,0.00,0,Wunderground v.1.15,2013-02-08 01:50:00,
2013-02-07 21:00:00,27.8,17.9,30.23,ESE,118,5.0,7.0,66,0.00,,,0.00,0,Wunderground v.1.15,2013-02-08 02:00:00,
2013-02-07 21:10:00,27.6,18.8,30.22,ESE,118,5.0,5.0,69,0.00,,,0.00,0,Wunderground v.1.15,2013-02-08 02:10:00,
2013-02-07 21:20:00,27.4,19.6,30.21,ESE,109,5.0,5.0,72,0.00,,,0.00,0,Wunderground v.1.15,2013-02-08 02:20:00,
2013-02-07 21:30:00,27.6,20.1,30.21,ESE,107,4.0,5.0,73,0.00,,,0.00,0,Wunderground v.1.15,2013-02-08 02:30:00,
2013-02-07 21:40:00,27.9,20.0,30.20,ESE,105,6.0,6.0,72,0.00,,,0.00,0,Wunderground v.1.15,2013-02-08 02:40:00,
2013-02-07 21:50:00,27.9,21.3,30.19,ESE,109,6.0,9.0,76,0.00,,,0.00,0,Wunderground v.1.15,2013-02-08 02:50:00,
2013-02-07 22:00:00,27.4,21.7,30.19,ESE,111,6.0,6.0,79,0.00,,,0.00,0,Wunderground v.1.15,2013-02-08 03:00:00,
2013-02-07 22:10:00,27.1,22.3,30.18,ESE,107,6.0,6.0,82,0.00,,,0.00,0,Wunderground v.1.15,2013-02-08 03:10:00,
2013-02-07 22:20:00,26.9,22.7,30.16,ESE,109,6.0,6.0,84,0.00,,,0.00,0,Wunderground v.1.15,2013-02-08 03:20:00,
2013-02-07 22:30:00,27.0,23.1,30.16,ESE,102,6.0,6.0,85,0.00,,,0.00,0,Wunderground v.1.15,2013-02-08 03:30:00,
2013-02-07 22:40:00,27.3,23.1,30.15,ESE,107,6.0,6.0,84,0.00,,,0.00,0,Wunderground v.1.15,2013-02-08 03:40:00,
2013-02-07 22:50:00,27.9,23.7,30.14,ESE,113,7.0,7.0,84,0.00,,,0.00,0,Wunderground v.1.15,2013-02-08 03:50:00,
2013-02-07 23:00:00,28.6,23.8,30.13,East,94,7.0,7.0,82,0.00,,,0.00,0,Wunderground v.1.15,2013-02-08 04:00:00,
2013-02-07 23:09:00,29.5,23.8,30.13,ESE,122,7.0,9.0,79,0.00,,,0.00,0,Wunderground v.1.15,2013-02-08 04:09:00,
2013-02-07 23:19:00,30.5,23.5,30.13,ESE,114,7.0,7.0,75,0.00,,,0.00,0,Wunderground v.1.15,2013-02-08 04:19:00,
2013-02-07 23:29:00,31.7,23.0,30.12,SE,140,11.0,16.0,70,0.00,,,0.00,0,Wunderground v.1.15,2013-02-08 04:29:00,
2013-02-07 23:39:00,32.5,22.4,30.12,SSE,157,11.0,15.0,66,0.00,,,0.00,0,Wunderground v.1.15,2013-02-08 04:39:00,
2013-02-07 23:49:00,32.7,22.2,30.12,SSE,163,12.0,13.0,65,0.00,,,0.00,0,Wunderground v.1.15,2013-02-08 04:49:00,